| time (UTC) | temp C | wind direction | speed KPH | gust KPH | rain 1hr cm | rain 24hr cm | rain mn cm | humidity % | barometer mb |
| 20260505203204 | 3 | 264 | 0.0 | 1.6 | 0.00 | 0.00 | 0.00 | 61 | 1011.5 |
| 20260505202705 | 3 | 264 | 0.0 | 1.6 | 0.00 | 0.00 | 0.00 | 60 | 1011.5 |
| 20260505202205 | 3 | 264 | 0.0 | 1.6 | 0.00 | 0.00 | 0.00 | 60 | 1011.5 |
| 20260505200704 | 3 | 264 | 0.0 | 3.2 | 0.00 | 0.00 | 0.00 | 57 | 1011.4 |
| 20260505200204 | 4 | 264 | 0.0 | 3.2 | 0.00 | 0.00 | 0.00 | 57 | 1011.4 |
| 20260505195205 | 4 | 264 | 0.0 | 0.0 | 0.00 | 0.00 | 0.00 | 56 | 1011.2 |
| 20260505194705 | 5 | 264 | 0.0 | 0.0 | 0.00 | 0.00 | 0.00 | 55 | 1011.2 |
| 20260505194205 | 5 | 264 | 0.0 | 0.0 | 0.00 | 0.00 | 0.00 | 54 | 1011.3 |
| 20260505193705 | 5 | 264 | 0.0 | 0.0 | 0.00 | 0.00 | 0.00 | 54 | 1011.2 |
| 20260505193205 | 5 | 264 | 0.0 | 0.0 | 0.00 | 0.00 | 0.00 | 53 | 1011.2 |
| 20260505192705 | 6 | 264 | 0.0 | 0.0 | 0.00 | 0.00 | 0.00 | 51 | 1011.1 |
| 20260505192204 | 6 | 264 | 0.0 | 1.6 | 0.00 | 0.00 | 0.00 | 50 | 1011.1 |
| 20260505191704 | 6 | 264 | 0.0 | 1.6 | 0.00 | 0.00 | 0.00 | 48 | 1011.1 |
| 20260505191205 | 7 | 264 | 0.0 | 3.2 | 0.00 | 0.00 | 0.00 | 46 | 1011.1 |
| 20260505190704 | 7 | 264 | 0.0 | 3.2 | 0.00 | 0.00 | 0.00 | 44 | 1011.0 |
| 20260505190204 | 7 | 264 | 0.0 | 3.2 | 0.00 | 0.00 | 0.00 | 43 | 1010.9 |
| 20260505185707 | 8 | 264 | 0.0 | 6.4 | 0.00 | 0.00 | 0.00 | 41 | 1010.9 |
| 20260505185205 | 8 | 264 | 1.6 | 6.4 | 0.00 | 0.00 | 0.00 | 41 | 1010.9 |
| 20260505184706 | 8 | 264 | 1.6 | 6.4 | 0.00 | 0.00 | 0.00 | 38 | 1010.8 |
| 20260505184205 | 8 | 263 | 3.2 | 6.4 | 0.00 | 0.00 | 0.00 | 37 | 1010.8 |
| 20260505183708 | 8 | 271 | 3.2 | 9.7 | 0.00 | 0.00 | 0.00 | 36 | 1010.8 |
| 20260505182705 | 9 | 264 | 4.8 | 11.3 | 0.00 | 0.00 | 0.00 | 35 | 1010.8 |
| 20260505182205 | 9 | 266 | 4.8 | 9.7 | 0.00 | 0.00 | 0.00 | 34 | 1010.7 |
| 20260505181704 | 9 | 261 | 4.8 | 11.3 | 0.00 | 0.00 | 0.00 | 34 | 1010.7 |
| 20260505181204 | 10 | 247 | 4.8 | 14.5 | 0.00 | 0.00 | 0.00 | 34 | 1010.7 |
| 20260505180704 | 10 | 256 | 6.4 | 14.5 | 0.00 | 0.00 | 0.00 | 34 | 1010.7 |
| 20260505180205 | 10 | 249 | 6.4 | 14.5 | 0.00 | 0.00 | 0.00 | 33 | 1010.6 |
| 20260505175705 | 10 | 265 | 4.8 | 12.9 | 0.00 | 0.00 | 0.00 | 33 | 1010.6 |
| 20260505175204 | 10 | 240 | 4.8 | 12.9 | 0.00 | 0.00 | 0.00 | 33 | 1010.6 |
| 20260505174705 | 10 | 248 | 4.8 | 12.9 | 0.00 | 0.00 | 0.00 | 31 | 1010.5 |
| 20260505174204 | 10 | 259 | 4.8 | 12.9 | 0.00 | 0.00 | 0.00 | 31 | 1010.4 |
| 20260505173704 | 10 | 254 | 6.4 | 16.1 | 0.00 | 0.00 | 0.00 | 31 | 1010.2 |
| 20260505173205 | 10 | 284 | 4.8 | 16.1 | 0.00 | 0.00 | 0.00 | 31 | 1010.4 |
| 20260505172204 | 10 | 260 | 8.0 | 20.9 | 0.00 | 0.00 | 0.00 | 30 | 1010.4 |
| 20260505171706 | 10 | 263 | 8.0 | 16.1 | 0.00 | 0.00 | 0.00 | 30 | 1010.3 |
| 20260505165204 | 10 | 250 | 4.8 | 20.9 | 0.00 | 0.00 | 0.00 | 29 | 1010.3 |
| 20260505164204 | 11 | 240 | 9.7 | 20.9 | 0.00 | 0.00 | 0.00 | 28 | 1010.3 |
| 20260505163704 | 11 | 251 | 8.0 | 20.9 | 0.00 | 0.00 | 0.00 | 25 | 1010.3 |
| 20260505163205 | 11 | 229 | 8.0 | 20.9 | 0.00 | 0.00 | 0.00 | 28 | 1010.3 |
| 20260505162709 | 11 | 252 | 8.0 | 20.9 | 0.00 | 0.00 | 0.00 | 27 | 1010.3 |
| 20260505161204 | 11 | 265 | 8.0 | 20.9 | 0.00 | 0.00 | 0.00 | 26 | 1010.3 |
| 20260505160204 | 11 | 267 | 9.7 | 22.5 | 0.00 | 0.00 | 0.00 | 26 | 1010.3 |
| 20260505153204 | 11 | 334 | 12.9 | 27.4 | 0.00 | 0.00 | 0.00 | 24 | 1010.4 |
| 20260505152704 | 11 | 242 | 11.3 | 27.4 | 0.00 | 0.00 | 0.00 | 23 | 1010.3 |
| 20260505151705 | 11 | 235 | 9.7 | 22.5 | 0.00 | 0.00 | 0.00 | 24 | 1010.3 |
| 20260505151205 | 11 | 315 | 9.7 | 22.5 | 0.00 | 0.00 | 0.00 | 24 | 1010.3 |
| 20260505150205 | 11 | 292 | 11.3 | 24.1 | 0.00 | 0.00 | 0.00 | 24 | 1010.3 |
| 20260505140205 | 11 | 342 | 11.3 | 24.1 | 0.00 | 0.00 | 0.00 | 22 | 1010.0 |
| 20260505130205 | 11 | 257 | 14.5 | 27.4 | 0.00 | 0.00 | 0.00 | 25 | 1010.0 |
| 20260505124205 | 11 | 284 | 14.5 | 27.4 | 0.00 | 0.00 | 0.00 | 25 | 1010.1 |
| 20260505123704 | 11 | 270 | 11.3 | 25.7 | 0.00 | 0.00 | 0.00 | 24 | 1010.0 |
| 20260505123205 | 11 | 288 | 11.3 | 25.7 | 0.00 | 0.00 | 0.00 | 26 | 1009.9 |
| 20260505122205 | 11 | 305 | 11.3 | 24.1 | 0.00 | 0.00 | 0.00 | 24 | 1010.1 |
| 20260505120704 | 11 | 304 | 12.9 | 25.7 | 0.00 | 0.00 | 0.00 | 27 | 1010.0 |
| 20260505120204 | 11 | 297 | 11.3 | 24.1 | 0.00 | 0.00 | 0.00 | 25 | 1010.0 |
| 20260505115706 | 11 | 296 | 12.9 | 27.4 | 0.00 | 0.00 | 0.00 | 27 | 1010.1 |
| 20260505114206 | 11 | 317 | 12.9 | 24.1 | 0.00 | 0.00 | 0.00 | 29 | 1010.0 |
| 20260505113704 | 11 | 292 | 11.3 | 22.5 | 0.00 | 0.00 | 0.00 | 29 | 1010.0 |
| 20260505113205 | 11 | 280 | 11.3 | 22.5 | 0.00 | 0.00 | 0.00 | 29 | 1010.0 |
| 20260505112705 | 11 | 290 | 12.9 | 24.1 | 0.00 | 0.00 | 0.00 | 28 | 1010.0 |
| 20260505112504 | 11 | 307 | 14.5 | 27.4 | 0.00 | 0.00 | 0.00 | 29 | 1009.9 |
| 20260505111705 | 11 | 238 | 12.9 | 27.4 | 0.00 | 0.00 | 0.00 | 26 | 1009.9 |
| 20260505111205 | 11 | 300 | 12.9 | 27.4 | 0.00 | 0.00 | 0.00 | 28 | 1009.9 |
| 20260505110704 | 11 | 314 | 12.9 | 24.1 | 0.00 | 0.00 | 0.00 | 29 | 1009.8 |
| 20260505110205 | 11 | 284 | 9.7 | 20.9 | 0.00 | 0.00 | 0.00 | 33 | 1009.8 |
| 20260505102204 | 11 | 235 | 8.0 | 22.5 | 0.00 | 0.00 | 0.00 | 35 | 1009.8 |
| 20260505101204 | 10 | 321 | 8.0 | 22.5 | 0.00 | 0.00 | 0.00 | 35 | 1009.8 |
| 20260505100705 | 10 | 304 | 6.4 | 22.5 | 0.00 | 0.00 | 0.00 | 37 | 1009.8 |
| 20260505100205 | 10 | 267 | 6.4 | 22.5 | 0.00 | 0.00 | 0.00 | 36 | 1009.7 |
| 20260505095704 | 10 | 244 | 9.7 | 22.5 | 0.00 | 0.00 | 0.00 | 35 | 1009.8 |
| 20260505095209 | 10 | 297 | 9.7 | 20.9 | 0.00 | 0.00 | 0.00 | 35 | 1009.9 |
| 20260505094705 | 10 | 261 | 6.4 | 16.1 | 0.00 | 0.00 | 0.00 | 35 | 1009.9 |
| 20260505094205 | 10 | 162 | 4.8 | 16.1 | 0.00 | 0.00 | 0.00 | 34 | 1009.9 |
| 20260505093705 | 10 | 275 | 6.4 | 16.1 | 0.00 | 0.00 | 0.00 | 37 | 1009.8 |
| 20260505093206 | 10 | 294 | 8.0 | 16.1 | 0.00 | 0.00 | 0.00 | 38 | 1009.9 |
| 20260505092705 | 10 | 207 | 8.0 | 16.1 | 0.00 | 0.00 | 0.00 | 37 | 1009.8 |
| 20260505092204 | 9 | 230 | 8.0 | 24.1 | 0.00 | 0.00 | 0.00 | 35 | 1009.8 |
| 20260505091704 | 9 | 252 | 9.7 | 24.1 | 0.00 | 0.00 | 0.00 | 39 | 1009.9 |
| 20260505091205 | 9 | 217 | 11.3 | 24.1 | 0.00 | 0.00 | 0.00 | 38 | 1009.9 |
| 20260505090704 | 9 | 249 | 6.4 | 14.5 | 0.00 | 0.00 | 0.00 | 38 | 1009.9 |
| 20260505090204 | 9 | 233 | 6.4 | 14.5 | 0.00 | 0.00 | 0.00 | 40 | 1009.8 |
| 20260505085704 | 9 | 252 | 4.8 | 14.5 | 0.00 | 0.00 | 0.00 | 39 | 1009.9 |
| 20260505085205 | 9 | 316 | 4.8 | 16.1 | 0.00 | 0.00 | 0.00 | 43 | 1009.8 |
| 20260505084705 | 8 | 302 | 6.4 | 16.1 | 0.00 | 0.00 | 0.00 | 39 | 1009.8 |
| 20260505084205 | 8 | 326 | 8.0 | 16.1 | 0.00 | 0.00 | 0.00 | 41 | 1009.8 |
| 20260505083705 | 8 | 294 | 6.4 | 14.5 | 0.00 | 0.00 | 0.00 | 40 | 1009.8 |
| 20260505083205 | 8 | 263 | 6.4 | 22.5 | 0.00 | 0.00 | 0.00 | 40 | 1009.7 |
| 20260505082705 | 8 | 271 | 6.4 | 22.5 | 0.00 | 0.00 | 0.00 | 41 | 1009.8 |
| 20260505082204 | 8 | 16 | 8.0 | 22.5 | 0.00 | 0.00 | 0.00 | 40 | 1009.8 |
| 20260505081705 | 8 | 317 | 8.0 | 19.3 | 0.00 | 0.00 | 0.00 | 41 | 1009.9 |
| 20260505081204 | 8 | 300 | 8.0 | 17.7 | 0.00 | 0.00 | 0.00 | 40 | 1009.9 |
| 20260505080704 | 8 | 309 | 8.0 | 24.1 | 0.00 | 0.00 | 0.00 | 42 | 1009.9 |
| 20260505075704 | 7 | 307 | 6.4 | 24.1 | 0.00 | 0.00 | 0.00 | 42 | 1009.8 |
| 20260505075204 | 7 | 323 | 6.4 | 19.3 | 0.00 | 0.00 | 0.00 | 44 | 1009.8 |
| 20260505074704 | 7 | 304 | 8.0 | 19.3 | 0.00 | 0.00 | 0.00 | 44 | 1009.8 |
| 20260505073704 | 7 | 271 | 8.0 | 19.3 | 0.00 | 0.00 | 0.00 | 43 | 1009.7 |
| 20260505073204 | 7 | 300 | 6.4 | 19.3 | 0.00 | 0.00 | 0.00 | 46 | 1009.7 |
| 20260505072204 | 7 | 233 | 6.4 | 14.5 | 0.00 | 0.00 | 0.00 | 45 | 1009.7 |
| 20260505071704 | 7 | 265 | 6.4 | 16.1 | 0.00 | 0.00 | 0.00 | 47 | 1009.6 |
| 20260505071205 | 7 | 302 | 6.4 | 16.1 | 0.00 | 0.00 | 0.00 | 45 | 1009.6 |
| 20260505070704 | 7 | 319 | 8.0 | 16.1 | 0.00 | 0.00 | 0.00 | 46 | 1009.6 |
| 20260505065705 | 6 | 234 | 8.0 | 19.3 | 0.00 | 0.00 | 0.00 | 47 | 1009.5 |
| 20260505065205 | 6 | 311 | 6.4 | 19.3 | 0.00 | 0.00 | 0.00 | 48 | 1009.5 |
| 20260505064705 | 6 | 313 | 6.4 | 19.3 | 0.00 | 0.00 | 0.00 | 49 | 1009.5 |
| 20260505063704 | 6 | 276 | 8.0 | 16.1 | 0.00 | 0.00 | 0.00 | 46 | 1009.5 |
| 20260505063204 | 6 | 302 | 6.4 | 17.7 | 0.00 | 0.00 | 0.00 | 49 | 1009.5 |
| 20260505062704 | 6 | 301 | 8.0 | 17.7 | 0.00 | 0.00 | 0.00 | 50 | 1009.6 |
| 20260505062205 | 6 | 281 | 6.4 | 17.7 | 0.00 | 0.00 | 0.00 | 50 | 1009.6 |
| 20260505061705 | 6 | 246 | 6.4 | 17.7 | 0.00 | 0.00 | 0.00 | 51 | 1009.6 |
| 20260505061205 | 6 | 279 | 6.4 | 17.7 | 0.00 | 0.00 | 0.00 | 53 | 1009.6 |
| 20260505060704 | 6 | 243 | 6.4 | 17.7 | 0.00 | 0.00 | 0.00 | 52 | 1009.5 |
| 20260505060204 | 6 | 280 | 6.4 | 17.7 | 0.00 | 0.00 | 0.00 | 53 | 1009.5 |
| 20260505055704 | 6 | 317 | 8.0 | 20.9 | 0.00 | 0.00 | 0.00 | 52 | 1009.5 |
| 20260505055204 | 5 | 298 | 8.0 | 20.9 | 0.00 | 0.00 | 0.00 | 53 | 1009.5 |
| 20260505054704 | 5 | 299 | 8.0 | 20.9 | 0.00 | 0.00 | 0.00 | 53 | 1009.5 |
| 20260505054205 | 5 | 315 | 8.0 | 14.5 | 0.00 | 0.00 | 0.00 | 54 | 1009.5 |
| 20260505053705 | 5 | 316 | 6.4 | 17.7 | 0.00 | 0.00 | 0.00 | 56 | 1009.4 |
| 20260505053204 | 5 | 265 | 8.0 | 17.7 | 0.00 | 0.00 | 0.00 | 58 | 1009.3 |
| 20260505052205 | 5 | 276 | 4.8 | 16.1 | 0.00 | 0.00 | 0.00 | 59 | 1009.2 |
| 20260505051205 | 5 | 317 | 4.8 | 16.1 | 0.00 | 0.00 | 0.00 | 60 | 1009.1 |
| 20260505050705 | 5 | 302 | 4.8 | 9.7 | 0.00 | 0.00 | 0.00 | 63 | 1009.1 |
| 20260505050204 | 5 | 0 | 4.8 | 12.9 | 0.00 | 0.00 | 0.00 | 64 | 1009.0 |
| 20260505041705 | 4 | 279 | 1.6 | 9.7 | 0.00 | 0.00 | 0.00 | 68 | 1008.7 |
| 20260505041204 | 4 | 278 | 1.6 | 9.7 | 0.00 | 0.00 | 0.00 | 69 | 1008.8 |
| 20260505040704 | 3 | 277 | 3.2 | 9.7 | 0.00 | 0.00 | 0.00 | 71 | 1008.7 |
| 20260505040204 | 3 | 267 | 3.2 | 9.7 | 0.00 | 0.00 | 0.00 | 72 | 1008.6 |
| 20260505035705 | 3 | 266 | 3.2 | 9.7 | 0.00 | 0.00 | 0.00 | 74 | 1008.7 |
| 20260505035204 | 3 | 275 | 3.2 | 9.7 | 0.00 | 0.00 | 0.00 | 76 | 1008.5 |
| 20260505034704 | 3 | 272 | 3.2 | 9.7 | 0.00 | 0.00 | 0.00 | 77 | 1008.5 |
| 20260505034205 | 4 | 283 | 3.2 | 9.7 | 0.00 | 0.00 | 0.00 | 77 | 1008.5 |
| 20260505033205 | 4 | 295 | 1.6 | 8.0 | 0.00 | 0.00 | 0.00 | 76 | 1008.4 |
| 20260505032704 | 4 | 301 | 1.6 | 12.9 | 0.00 | 0.00 | 0.00 | 76 | 1008.4 |
| 20260505032204 | 5 | 300 | 3.2 | 12.9 | 0.00 | 0.00 | 0.00 | 77 | 1008.3 |
| 20260505031705 | 5 | 304 | 4.8 | 11.3 | 0.00 | 0.00 | 0.00 | 78 | 1008.2 |
| 20260505031205 | 5 | 315 | 4.8 | 11.3 | 0.00 | 0.00 | 0.00 | 80 | 1008.2 |
| 20260505030704 | 5 | 290 | 3.2 | 8.0 | 0.00 | 0.00 | 0.00 | 81 | 1008.1 |
| 20260505030204 | 5 | 243 | 1.6 | 4.8 | 0.00 | 0.00 | 0.00 | 84 | 1008.1 |
| 20260505025705 | 5 | 242 | 1.6 | 4.8 | 0.00 | 0.00 | 0.00 | 84 | 1008.0 |
| 20260505025205 | 5 | 242 | 1.6 | 6.4 | 0.00 | 0.00 | 0.00 | 84 | 1008.0 |
| 20260505024704 | 5 | 242 | 1.6 | 9.7 | 0.00 | 0.00 | 0.00 | 84 | 1008.0 |
| 20260505024211 | 5 | 242 | 3.2 | 9.7 | 0.00 | 0.00 | 0.00 | 84 | 1007.9 |
| 20260505023704 | 5 | 240 | 3.2 | 6.4 | 0.00 | 0.00 | 0.00 | 84 | 1007.9 |
| 20260505023204 | 5 | 252 | 1.6 | 8.0 | 0.00 | 0.00 | 0.00 | 84 | 1007.8 |
| 20260505022204 | 6 | 251 | 3.2 | 11.3 | 0.00 | 0.03 | 0.00 | 84 | 1007.8 |
| 20260505021704 | 6 | 255 | 4.8 | 11.3 | 0.00 | 0.03 | 0.00 | 84 | 1007.7 |
| 20260505020205 | 6 | 273 | 3.2 | 12.9 | 0.00 | 0.03 | 0.00 | 84 | 1007.8 |
| 20260505015204 | 6 | 267 | 6.4 | 14.5 | 0.00 | 0.03 | 0.00 | 85 | 1007.6 |
| 20260505014204 | 6 | 273 | 4.8 | 14.5 | 0.00 | 0.03 | 0.00 | 85 | 1007.8 |
| 20260505013704 | 6 | 250 | 6.4 | 14.5 | 0.00 | 0.03 | 0.00 | 85 | 1007.7 |
| 20260505013205 | 6 | 269 | 4.8 | 16.1 | 0.00 | 0.03 | 0.00 | 85 | 1007.7 |
| 20260505012705 | 6 | 267 | 6.4 | 16.1 | 0.00 | 0.05 | 0.00 | 85 | 1007.7 |
| 20260505012206 | 6 | 258 | 6.4 | 14.5 | 0.00 | 0.05 | 0.00 | 85 | 1007.6 |
| 20260505011705 | 6 | 249 | 4.8 | 14.5 | 0.00 | 0.05 | 0.00 | 85 | 1007.6 |
| 20260505011204 | 6 | 237 | 4.8 | 16.1 | 0.00 | 0.05 | 0.00 | 85 | 1007.6 |
| 20260505010704 | 7 | 233 | 6.4 | 16.1 | 0.00 | 0.05 | 0.00 | 85 | 1007.7 |
| 20260505010204 | 7 | 242 | 6.4 | 17.7 | 0.00 | 0.05 | 0.00 | 85 | 1007.6 |
| 20260505005704 | 7 | 254 | 6.4 | 17.7 | 0.00 | 0.05 | 0.00 | 85 | 1007.7 |
| 20260505005205 | 6 | 242 | 6.4 | 17.7 | 0.00 | 0.08 | 0.00 | 85 | 1007.6 |
| 20260505004205 | 6 | 239 | 4.8 | 12.9 | 0.00 | 0.08 | 0.00 | 85 | 1007.7 |
| 20260505003705 | 6 | 254 | 4.8 | 12.9 | 0.00 | 0.08 | 0.00 | 85 | 1007.8 |
| 20260505003205 | 6 | 238 | 4.8 | 14.5 | 0.00 | 0.08 | 0.00 | 85 | 1007.7 |
| 20260505002704 | 6 | 265 | 4.8 | 14.5 | 0.00 | 0.08 | 0.00 | 85 | 1007.7 |
| 20260505002204 | 6 | 258 | 4.8 | 16.1 | 0.00 | 0.08 | 0.00 | 85 | 1007.6 |
| 20260505001705 | 6 | 219 | 6.4 | 16.1 | 0.00 | 0.10 | 0.00 | 85 | 1007.5 |
| 20260505001205 | 7 | 243 | 6.4 | 17.7 | 0.00 | 0.10 | 0.00 | 85 | 1007.6 |
| 20260505000704 | 7 | 230 | 6.4 | 17.7 | 0.00 | 0.10 | 0.00 | 85 | 1007.6 |
| 20260505000204 | 7 | 254 | 8.0 | 17.7 | 0.00 | 0.10 | 0.00 | 85 | 1007.5 |
| 20260504235704 | 7 | 250 | 8.0 | 16.1 | 0.00 | 0.10 | 0.00 | 85 | 1007.5 |
| 20260504235204 | 7 | 232 | 6.4 | 16.1 | 0.00 | 0.10 | 0.00 | 85 | 1007.5 |
| 20260504234704 | 7 | 221 | 6.4 | 16.1 | 0.00 | 0.10 | 0.00 | 85 | 1007.5 |
| 20260504234205 | 7 | 254 | 6.4 | 16.1 | 0.00 | 0.10 | 0.00 | 85 | 1007.5 |
| 20260504233206 | 7 | 242 | 8.0 | 17.7 | 0.00 | 0.10 | 0.00 | 85 | 1007.5 |
| 20260504232205 | 7 | 228 | 6.4 | 17.7 | 0.00 | 0.10 | 0.00 | 85 | 1007.5 |
| 20260504231704 | 7 | 232 | 6.4 | 17.7 | 0.00 | 0.10 | 0.00 | 85 | 1007.5 |
| 20260504231205 | 7 | 227 | 8.0 | 20.9 | 0.00 | 0.10 | 0.00 | 85 | 1007.5 |
| 20260504230705 | 7 | 216 | 9.7 | 20.9 | 0.00 | 0.10 | 0.00 | 85 | 1007.4 |
| 20260504230205 | 7 | 209 | 11.3 | 20.9 | 0.00 | 0.10 | 0.00 | 85 | 1007.4 |
| 20260504225704 | 7 | 248 | 11.3 | 19.3 | 0.00 | 0.10 | 0.00 | 85 | 1007.4 |
| 20260504225204 | 7 | 199 | 11.3 | 20.9 | 0.00 | 0.10 | 0.00 | 85 | 1007.4 |
| 20260504224704 | 7 | 217 | 11.3 | 20.9 | 0.00 | 0.10 | 0.00 | 85 | 1007.5 |
| 20260504223704 | 7 | 215 | 11.3 | 20.9 | 0.00 | 0.10 | 0.00 | 86 | 1007.4 |
| 20260504223205 | 7 | 212 | 11.3 | 19.3 | 0.00 | 0.10 | 0.00 | 86 | 1007.4 |
| 20260504222705 | 7 | 217 | 11.3 | 19.3 | 0.00 | 0.10 | 0.00 | 85 | 1007.4 |
| 20260504220705 | 7 | 198 | 12.9 | 20.9 | 0.00 | 0.10 | 0.00 | 85 | 1007.5 |
| 20260504220205 | 7 | 202 | 11.3 | 19.3 | 0.00 | 0.10 | 0.10 | 85 | 1007.5 |
| 20260504215705 | 7 | 227 | 11.3 | 19.3 | 0.00 | 0.10 | 0.10 | 85 | 1007.5 |
| 20260504215205 | 7 | 219 | 11.3 | 17.7 | 0.00 | 0.10 | 0.10 | 85 | 1007.5 |
| 20260504214704 | 7 | 230 | 11.3 | 17.7 | 0.00 | 0.10 | 0.10 | 85 | 1007.4 |
| 20260504214205 | 7 | 228 | 11.3 | 24.1 | 0.00 | 0.10 | 0.10 | 85 | 1007.4 |
| 20260504213704 | 7 | 232 | 11.3 | 24.1 | 0.00 | 0.10 | 0.10 | 84 | 1007.4 |
| 20260504213204 | 7 | 234 | 11.3 | 24.1 | 0.00 | 0.10 | 0.10 | 84 | 1007.4 |
| 20260504212704 | 7 | 213 | 11.3 | 19.3 | 0.00 | 0.10 | 0.10 | 84 | 1007.4 |
| 20260504212204 | 7 | 203 | 11.3 | 25.7 | 0.00 | 0.10 | 0.10 | 84 | 1007.4 |
| 20260504211204 | 7 | 243 | 11.3 | 25.7 | 0.00 | 0.10 | 0.10 | 84 | 1007.4 |
| 20260504210705 | 7 | 219 | 11.3 | 20.9 | 0.00 | 0.10 | 0.10 | 84 | 1007.4 |
| 20260504210208 | 7 | 237 | 11.3 | 22.5 | 0.00 | 0.10 | 0.10 | 84 | 1007.4 |
| 20260504205704 | 7 | 225 | 12.9 | 22.5 | 0.00 | 0.10 | 0.10 | 83 | 1007.4 |
| 20260504205204 | 7 | 219 | 11.3 | 22.5 | 0.00 | 0.10 | 0.10 | 84 | 1007.5 |
| 20260504204704 | 7 | 261 | 9.7 | 22.5 | 0.00 | 0.10 | 0.10 | 83 | 1007.5 |
| 20260504204204 | 7 | 238 | 11.3 | 25.7 | 0.00 | 0.10 | 0.10 | 83 | 1007.6 |
| 20260504203704 | 7 | 234 | 11.3 | 25.7 | 0.00 | 0.10 | 0.10 | 83 | 1007.6 |